DECAYED

STARLINK-1028, 44733 (Decayed)

Orbit data source: Space-Track

STARLINK-1028, 44733 was a payload satellite owned by SpaceX/Seattle (US) in LEO that was launched on Mon, 11 Nov 2019 UTC via an FALCON 9 launch vehicle from the Air Force Eastern Test Range (AFETR). Payload-class satellites include a variety of spacecraft equipped with specific instruments for various scientific and technological missions. These include communications satellites like Starlink; space stations such as the ISS; scientific satellites like the Hubble; Earth observation satellites from companies like Planet Labs, Umbra, and HawkEye 360; GPS; miniature CubeSats for education and research; and military/defense satellites.

Not visible in the next 10 days
Identifier
44733, 2019-074W
Orbit
Decayed
Country
Flag of USUS
Related business
Manufacturer
SpaceX/Seattle
Mission
Decayed Commercial Communications
Bus & Motor
STARLINK, Unknown motor
Mass
260 kg wet, ~248 kg dry
Launch date (UTC)
2019-11-11 (6 years ago)
Launch vehicle
FALCON 9
Launch site
Air Force Eastern Test Range (AFETR)
Object type
Payload
Rocket body
Debris
Shape & HBR
Box + 1 Pan, 10.1 m
Radar Cross Section
13.562 m², Large (>1 m²)

Expand to show TLE details & history
Last TLE update: 1 year ago

TLE from 1 year ago
0 STARLINK-1028
1 44733U 19074W   25045.58818537  .13478033  12412-4  49942-3 0  9997
2 44733  53.0321  81.6297 0005062 225.0418 277.7017 16.43988078291079
Epoch: 2025-02-14T14:06Z
TLE epoch observation values (Epoch: 2025-02-14T14:06:59.215Z)
Latitude
29.06126°
Longitude
-119.53807°
Altitude
156.316 km
Speed
7.817 km/s
True Right ascension
15h 48m 13s
True Declination
28° 54' 07"
Sunlit
Object was in daylight at epoch
Visualization orbit readout
Latitude
Unknown
Longitude
Unknown
Altitude
Unknown
Speed
Unknown
Apparent Right ascension
Unknown
Apparent Declination
Unknown
Sunlit
N/A
Visualization observer readout
Local Sidereal Time
18:40:55
Azimuth
Unknown
Elevation
Unknown
Doppler factor
Unknown
Orbital elements
Apogee altitude
158.813 km
Perigee altitude
152.198 km
Semi-major axis
6,533.642 km
Eccentricity
0.00051
Inclination
53.0321°
RAAN
81.6297°
Arg. of periapsis
225.0418°
True anomaly
277.64421°
Mean anomaly
277.7017°
Eccentric anomaly
277.67296°
Mean motion
4.1097 °/min
Orbital period
87.6 mins
BSTAR
0.00049942
Loading maneuver chart data...
Computing Atmospheric mass density...

Documentation

Showing up to 5 results
|